Flag for Brazil Weather past 2 weeks in Itabuna, Bahia, Brazil

Now
77 °F

Broken clouds.


Feels Like: 79 °F
Forecast: N/A
Wind: 5 mph from Southwest

Location: Salvador Aeroporto

Current Time: Jul 3, 2015 at 5:58:49 PM

Latest Report: Jul 3, 2015 at 5:00 PM


Visibility: N/A

Pressure: 30.01 "Hg

Humidity: 79%

Dew point: 70 °F

Location of ItabunaLocation

Historic Weather in Itabuna — Graph

°F

Itabuna temperature yesterday

Maximum temperature yesterday: 82 °F (at 11:00 AM)
Minimum temperature yesterday: 77 °F (at 12:00 AM)
Average temperature yesterday: 79 °F

Past Weeks' High & Low Weather Summary

 TemperatureHumidityPressure
High84 °F (Jun 20, 12:00 PM)100% (Jun 19, 4:00 PM)30.24 "Hg (Jun 19, 4:00 PM)
Low36 °F (Jun 28, 3:00 AM)48% (Jun 20, 12:00 PM)29.98 "Hg (Jun 18, 4:00 PM)
Average76 °F74%30.09 "Hg
* Reported Jun 18 4:00 PM — Jul 3 4:00 PM, Itabuna, Weather by CustomWeather, © 2015

Note: Actual official high and low records may vary slightly from our data, if they occured in-between our weather recording intervals... More about our weather records

Advertising

Itabuna weather history for previous 24 hours

 ConditionsComfort  
Time TempWeatherWind HumidityBarometerVisibility
4:00 PM
Fri, Jul 3
79 °FBroken clouds.6 mph74%30.01 "HgN/A
3:00 PM77 °FScattered showers. Partly sunny.9 mph74%N/AN/A
2:00 PM81 °FScattered showers. Broken clouds.7 mph66%N/AN/A
1:00 PM79 °FScattered showers. Partly sunny.9 mph74%N/A5 mi
12:00 PM81 °FScattered showers. Partly sunny.9 mph70%N/A5 mi
11:00 AM77 °FFog.6 mph83%N/A3 mi
10:00 AM77 °FScattered showers. Partly sunny.6 mph74%N/A5 mi
9:00 AM73 °FLight rain. Fog.10 mph89%30.07 "Hg3 mi
8:00 AM77 °FScattered showers. Partly sunny.9 mph79%N/A5 mi
7:00 AM75 °FPartly sunny.6 mph83%30.01 "Hg6 mi
6:00 AM73 °FScattered showers. Broken clouds.3 mph89%N/A6 mi
5:00 AM77 °FPassing clouds.6 mph74%30.01 "HgN/A
4:00 AM75 °FPassing clouds.6 mph78%30.01 "HgN/A
3:00 AM75 °FPassing clouds.5 mph78%30.01 "HgN/A
2:00 AM75 °FPassing clouds.3 mph78%30.01 "HgN/A
1:00 AM75 °FPassing clouds.7 mph74%30.04 "HgN/A
12:00 AM77 °FPassing clouds.7 mph74%30.04 "HgN/A
11:00 PM
Thu, Jul 2
77 °FPassing clouds.6 mph74%30.07 "HgN/A
10:00 PM77 °FPassing clouds.8 mph79%30.04 "HgN/A
9:00 PM77 °FPassing clouds.8 mph69%30.04 "HgN/A
8:00 PM77 °FPassing clouds.7 mph69%30.04 "HgN/A
7:00 PM77 °FPassing clouds.8 mph69%30.01 "HgN/A
6:00 PM77 °FPassing clouds.6 mph69%30.01 "HgN/A
5:00 PM79 °FScattered clouds.6 mph65%30.01 "HgN/A
Weather by CustomWeather, © 2015

See weather overviewHow to use our weather pages